Location: La Pernelle
(49.6188°N, 1.2999°W)
Time: 13:56:06
(UTC+00:00)

CENTAUR R/B - Pass Details

Date: 12 June 2021
Orbit: 740 x 1447 km, 63.4° (Epoch: 17 July)

Event Time Altitude Azimuth Distance (km) Brightness Sun altitude
Rises 21:28:41 0° 210° (SSW) 3,398 5.1 -9.3°
Reaches altitude 10° 21:30:59 10° 208° (SSW) 2,542 4.4 -9.5°
Maximum altitude 21:36:52 70° 126° (SE) 1,060 2.5 -10.1°
Drops below altitude 10° 21:43:58 10° 45° (NE) 3,045 5.2 -10.7°
Sets 21:46:56 0° 43° (NE) 4,119 6.0 -11.0°
